GW1675 Weather Reports


Display with metric or nautical units.
time (UTC)temp
F
wind
direction
speed
MPH
gust
MPH
rain 1hr
in
rain 24hr
in
rain mn
in
humidity
%
barometer
mb
20260905103055 86 122 5.0 11.0 0.00 0.00 0.00 70 1020.5
20260905101600 86 122 5.0 8.0 0.00 0.00 0.00 70 1020.2
20260905100104 84 122 5.0 9.0 0.00 0.00 0.00 70 1019.9
20260905094556 86 122 1.0 4.0 0.00 0.00 0.00 70 1019.4
20260905093102 86 0 0.0 2.0 0.00 0.00 0.00 70 1019.3
20260905091551 84 122 0.0 9.0 0.00 0.00 0.00 70 1019.1
20260905090058 81 122 8.0 13.0 0.00 0.00 0.00 69 1018.8
20260905084604 79 160 6.0 10.0 0.00 0.00 0.00 69 1019.1
20260905083057 79 162 3.0 5.0 0.00 0.00 0.00 69 1019.9
20260905081553 78 162 1.0 5.0 0.00 0.00 0.00 69 1020.0
20260905080117 78 162 2.0 9.0 0.00 0.00 0.00 69 1020.5
20260905074557 78 162 4.0 9.0 0.00 0.00 0.00 69 1020.5
20260905073101 78 162 6.0 14.0 0.00 0.00 0.00 69 1020.2
20260905071555 82 180 4.0 6.0 0.00 0.00 0.00 70 1019.4
20260905064604 82 185 4.0 9.0 0.00 0.00 0.00 70 1018.0
20260905063056 80 188 5.0 8.0 0.00 0.00 0.00 69 1018.3
20260905061558 79 188 2.0 4.0 0.00 0.00 0.00 69 1018.4
20260905060048 80 188 0.0 1.0 0.00 0.00 0.00 69 1018.6
20260905054559 79 188 2.0 4.0 0.00 0.00 0.00 69 1018.3
20260905053108 79 0 0.0 6.0 0.00 0.00 0.00 69 1018.7
20260905051556 78 188 0.0 3.0 0.00 0.00 0.00 69 1018.4
20260905050108 78 188 1.0 2.0 0.00 0.00 0.00 69 1018.7
20260905044558 78 0 0.0 1.0 0.00 0.00 0.00 69 1018.8
20260905043102 79 188 0.0 2.0 0.00 0.00 0.00 69 1019.3
20260905041559 79 0 0.0 2.0 0.00 0.00 0.00 69 1019.2
20260905040107 80 188 1.0 4.0 0.00 0.00 0.00 70 1019.2
20260905034611 79 188 1.0 3.0 0.00 0.00 0.00 69 1018.8
20260905033115 80 0 1.0 1.0 0.00 0.00 0.00 70 1018.4
20260905031602 80 188 0.0 2.0 0.00 0.00 0.00 70 1018.2
20260905030104 80 188 1.0 2.0 0.00 0.00 0.00 70 1018.0
20260905024557 80 188 2.0 2.0 0.00 0.00 0.00 70 1017.8
20260905023111 79 0 0.0 1.0 0.00 0.00 0.00 70 1017.8
20260905021556 80 188 0.0 1.0 0.00 0.00 0.00 70 1017.8
20260905020055 80 188 0.0 1.0 0.00 0.00 0.00 70 1018.0
20260905014559 81 0 0.0 1.0 0.00 0.00 0.00 70 1018.1
20260905013056 81 0 0.0 0.0 0.00 0.00 0.00 70 1017.9
20260905011600 83 0 0.0 1.0 0.00 0.00 0.00 70 1018.2
20260905010107 85 188 0.0 4.0 0.00 0.00 0.00 71 1018.2
20260905004625 85 188 2.0 4.0 0.00 0.00 0.00 71 1018.1
20260905003104 84 188 2.0 4.0 0.00 0.00 0.00 71 1018.1
20260905001558 81 188 1.0 2.0 0.00 0.00 0.00 70 1018.4
20260905000135 80 188 1.0 1.0 0.00 0.00 0.00 70 1018.5
20260904234600 80 0 0.0 1.0 0.00 0.00 0.00 70 1018.5
20260904233058 80 188 0.0 3.0 0.00 0.00 0.00 70 1018.8
20260904231557 80 0 0.0 0.0 0.00 0.00 0.00 70 1018.9
20260904230114 81 0 0.0 1.0 0.00 0.00 0.00 71 1018.8
20260904224559 81 188 1.0 2.0 0.00 0.00 0.00 71 1019.0
20260904223100 81 0 0.0 3.0 0.00 0.00 0.00 71 1018.9
20260904221557 82 188 1.0 2.0 0.00 0.00 0.00 71 1019.2
20260904220100 83 188 2.0 3.0 0.00 0.00 0.00 71 1019.3
20260904214607 84 188 2.0 11.0 0.00 0.00 0.00 71 1019.4
20260904213059 86 191 4.0 6.0 0.00 0.00 0.00 72 1018.9
20260904211603 85 191 4.0 5.0 0.00 0.00 0.00 71 1018.9
20260904210055 85 191 2.0 8.0 0.00 0.00 0.00 72 1018.9
20260904204602 84 191 1.0 4.0 0.00 0.00 0.00 72 1019.3
20260904203100 85 0 0.0 4.0 0.00 0.00 0.00 72 1019.9
20260904201621 85 191 2.0 4.0 0.00 0.00 0.00 72 1019.9
20260904200100 85 0 0.0 2.0 0.00 0.00 0.00 72 1019.4
20260904194555 86 0 0.0 4.0 0.00 0.00 0.00 72 1019.3
20260904193100 85 191 1.0 2.0 0.00 0.00 0.00 72 1019.1
20260904191555 85 191 1.0 1.0 0.00 0.00 0.00 72 1019.1
20260904190056 84 191 0.0 2.0 0.00 0.00 0.00 72 1018.9
20260904184556 84 191 1.0 2.0 0.00 0.00 0.00 72 1018.8
20260904183113 85 0 0.0 2.0 0.00 0.00 0.00 72 1018.6
20260904181554 88 0 0.0 1.0 0.00 0.00 0.00 72 1018.9
20260904174557 89 191 2.0 7.0 0.00 0.00 0.00 73 1018.5
20260904173056 88 192 4.0 7.0 0.00 0.00 0.00 73 1018.0
20260904171611 89 192 2.0 4.0 0.00 0.00 0.00 73 1019.4
20260904170100 89 192 3.0 4.0 0.00 0.00 0.00 73 1019.7
20260904164610 89 192 1.0 2.0 0.00 0.00 0.00 73 1019.8
20260904163053 88 192 3.0 8.0 0.00 0.00 0.00 72 1019.7
20260904161552 86 192 2.0 3.0 0.00 0.00 0.00 72 1019.8
20260904154558 83 192 3.0 6.0 0.00 0.00 0.00 72 1020.7
20260904153109 82 192 4.0 13.0 0.00 0.00 0.00 71 1020.8
20260904151553 83 192 6.0 10.0 0.00 0.00 0.00 71 1021.0
20260904150100 84 193 4.0 8.0 0.00 0.00 0.00 72 1021.1
20260904144559 82 193 0.0 15.0 0.00 0.00 0.00 71 1020.9
20260904143055 86 158 8.0 14.0 0.00 0.00 0.00 72 1021.0
20260904141555 85 118 5.0 9.0 0.00 0.00 0.00 71 1019.7
20260904140104 84 118 5.0 11.0 0.00 0.00 0.00 71 1020.3
20260904134601 83 122 9.0 12.0 0.00 0.00 0.00 71 1020.4
20260904133059 83 122 0.0 4.0 0.00 0.00 0.00 71 1021.8
20260904131607 83 122 1.0 3.0 0.00 0.00 0.00 71 1022.2
20260904130050 82 122 0.0 4.0 0.00 0.00 0.00 71 1022.4
20260904124557 82 122 2.0 6.0 0.00 0.00 0.00 70 1022.8
20260904123058 82 122 0.0 3.0 0.00 0.00 0.00 70 1022.8
20260904121556 81 0 0.0 4.0 0.00 0.00 0.00 70 1022.6
20260904114605 79 128 1.0 5.0 0.00 0.00 0.00 70 1023.2
20260904113057 78 0 2.0 8.0 0.00 0.00 0.00 69 1023.1
20260904111606 78 127 4.0 9.0 0.00 0.00 0.00 69 1023.4
20260904104601 78 128 3.0 8.0 0.00 0.00 0.00 69 1023.1